FW1436 Weather Reports


time (UTC)temp
F
wind
direction
speed
knots
gust
knots
rain 1hr
in
rain 24hr
in
rain mn
in
humidity
%
barometer
mb
20260502223009 57 272 0.0 0.0 0.00 0.00 0.00 91 1012.1
20260502221507 57 272 0.0 0.9 0.00 0.00 0.00 92 1012.2
20260502220004 56 272 0.0 0.9 0.00 0.00 0.00 93 1012.3
20260502214503 56 272 0.0 0.9 0.00 0.00 0.00 92 1012.3
20260502213002 56 272 0.0 0.0 0.00 0.00 0.00 92 1012.3
20260502211504 56 272 0.0 0.0 0.00 0.00 0.00 92 1012.0
20260502210001 57 280 0.0 0.9 0.00 0.00 0.00 92 1011.9
20260502204502 57 264 0.0 0.9 0.00 0.00 0.00 91 1011.8
20260502203109 57 280 0.0 2.6 0.00 0.00 0.00 91 1011.6
20260502201620 57 273 0.0 1.7 0.00 0.00 0.00 90 1011.4
20260502200059 58 281 0.9 3.5 0.00 0.00 0.00 90 1011.3
20260502194601 58 309 0.9 2.6 0.00 0.00 0.00 89 1011.2
20260502193109 58 283 0.9 4.3 0.00 0.00 0.00 89 1011.1
20260502191657 58 248 0.9 4.3 0.00 0.00 0.00 89 1011.0
20260502190056 59 274 0.0 6.1 0.00 0.00 0.00 88 1011.0
20260502184555 59 233 0.0 5.2 0.00 0.00 0.00 88 1010.8
20260502183059 60 249 1.7 6.1 0.00 0.00 0.00 88 1010.8
20260502181556 60 257 0.0 2.6 0.00 0.00 0.00 89 1010.9
20260502163048 56 266 0.9 4.3 0.00 0.00 0.00 95 1011.3
20260502161552 55 280 1.7 5.2 0.00 0.00 0.00 95 1011.5
20260502160147 55 310 0.9 4.3 0.00 0.00 0.00 94 1011.5
20260502151545 63 306 0.9 3.5 0.00 0.00 0.00 84 1011.2
20260502123029 57 262 0.0 4.3 0.00 0.00 0.00 95 1013.4
20260502121528 58 283 0.9 6.1 0.00 0.00 0.00 95 1013.2
20260502114530 60 101 0.9 4.3 0.00 0.00 0.00 95 1013.4
20260502113025 59 127 0.9 5.2 0.00 0.00 0.00 95 1013.6
20260502111517 59 107 0.9 4.3 0.00 0.00 0.00 96 1014.0
20260502110018 58 79 0.9 4.3 0.00 0.00 0.00 96 1014.3
20260502104519 57 141 0.0 3.5 0.00 0.00 0.00 96 1014.6
20260502103011 0 0.0 0.0 0.00 0.00 0.00 1014.6
20260502101506 0 0.0 0.0 0.00 0.00 0.00 1014.8
20260502071514 0 0.0 0.0 0.00 0.00 0.00 1015.1
20260502070010 0 0.0 0.0 0.00 0.00 0.00 1015.0
20260502064505 0 0.0 0.0 0.00 0.00 0.00 1015.3
20260502063005 0 0.0 0.0 0.00 0.00 0.00 1015.3
20260502061505 0 0.0 0.0 0.00 0.00 0.00 1015.8
20260502054556 0 0.0 0.0 0.00 0.00 0.00 1014.8
20260502053057 0 98 2.6 5.2 0.00 0.00 0.00 1014.7
20260502051551 58 114 1.7 4.3 0.00 0.00 0.00 84 1014.8
20260502050050 58 124 0.0 2.6 0.00 0.00 0.00 82 1015.4
20260502044547 58 172 0.9 2.6 0.00 0.00 0.00 82 1015.2
20260502043117 58 113 0.9 3.5 0.00 0.00 0.00 82 1015.0
20260502041558 58 108 0.0 5.2 0.00 0.00 0.00 82 1014.9
20260502040044 59 108 0.0 1.7 0.00 0.00 0.00 82 1015.5
20260502034542 59 138 0.0 1.7 0.00 0.00 0.00 81 1015.6
20260502033042 59 124 0.0 2.6 0.00 0.00 0.00 81 1015.4
20260502031540 59 120 0.0 3.5 0.00 0.00 0.00 81 1015.3
20260502030046 59 158 0.0 3.5 0.00 0.00 0.00 81 1015.5
20260502024538 59 162 0.0 3.5 0.00 0.00 0.00 81 1015.6
20260502023036 59 153 0.9 4.3 0.00 0.00 0.00 80 1015.7
20260502021534 59 116 0.9 3.5 0.00 0.00 0.00 80 1015.7
20260502020035 60 139 0.0 4.3 0.00 0.00 0.00 80 1015.7
20260502014530 60 102 0.9 4.3 0.00 0.00 0.00 79 1016.0
20260502013030 60 106 0.9 3.5 0.00 0.00 0.00 79 1016.0
20260502011529 60 150 0.9 6.1 0.00 0.00 0.00 79 1016.0
20260502010030 60 157 1.7 6.1 0.00 0.00 0.00 79 1016.2
20260502004530 60 136 0.0 1.7 0.00 0.00 0.00 79 1016.3
20260502003025 61 64 0.9 2.6 0.00 0.00 0.00 78 1016.1
20260502001523 61 227 0.0 7.8 0.00 0.00 0.00 77 1016.1
20260502000023 61 150 2.6 8.7 0.00 0.00 0.00 76 1016.1
20260501234518 62 152 3.5 9.6 0.00 0.00 0.00 76 1016.2
20260501233018 62 123 0.0 7.0 0.00 0.00 0.00 76 1016.4
20260501231518 62 165 1.7 7.8 0.00 0.00 0.00 75 1016.4
20260501230022 63 145 1.7 6.1 0.00 0.00 0.00 74 1016.3
20260501224511 63 160 0.9 7.8 0.00 0.00 0.00 73 1016.3